Hourly Data Report for February 20, 2021

OTTAWA INTL A
ONTARIO
Current Station Operator: NAVCAN

45°19'00.000" N
75°40'00.000" W
114.90 m
6106001
71628
YOW

Download Data

Hourly Data (February 2021)
Hourly Data Report for February 20, 2021
TIME
LST
Temp Definition
°C
Dew Point Definition
°C
Rel Hum Definition
%
Precip. Amount Definition
mm

Wind Dir Definition
10's deg

Wind Spd Definition
km/h
Visibility Definition
km
Stn Press Definition
kPa
Hmdx Definition


Wind Chill Definition


Weather Definition


00:00 -9.6 -10.8 91   28 13 2.4 100.47   -16 Fog
01:00 -11.6 -12.9 90   27 7 12.9 100.46   -16 Mostly Cloudy
02:00 -13.2 -14.7 89   24 8 4.8 100.47   -18 Fog
03:00 -11.6 -13.0 89   28 12 1.0 100.45   -18 Snow, Fog
04:00 -12.1 -13.6 89   27 10 1.2 100.45   -18 Snow, Fog
05:00 -12.4 -13.9 89   29 13 1.2 100.46   -19 Snow, Fog
06:00 -12.7 -14.2 88   26 10 1.6 100.46   -18 Snow, Fog
07:00 -12.9 -14.4 89   28 10 4.8 100.48   -19 Snow, Fog
08:00 -14.1 -15.9 87   28 9 24.1 100.51   -20 LegendNANA
09:00 -12.2 -13.7 88   29 12 24.1 100.52   -19 LegendNANA
10:00 -11.1 -12.6 89   30 11 24.1 100.52   -17 Clear
11:00 -9.1 -10.3 91   29 14 24.1 100.55   -15 LegendNANA
12:00 -7.4 -8.5 92   28 20 24.1 100.56   -15 LegendNANA
13:00 -5.5 -10.6 67   28 24 24.1 100.54   -13 Mainly Clear
14:00 -4.8 -10.3 65   28 17 24.1 100.55   -11 LegendNANA
15:00 -4.6 -10.5 63   29 20 24.1 100.58   -11 LegendNANA
16:00 -4.3 -10.2 64   30 18 24.1 100.65   -10 Mostly Cloudy
17:00 -4.1 -11.6 56   34 16 24.1 100.71   -10 LegendNANA
18:00 -4.9 -9.5 70   29 15 24.1 100.80   -10 LegendNANA
19:00 -5.3 -9.5 72   28 12 24.1 100.89   -10 Mostly Cloudy
20:00 -4.6 -11.4 59   33 24 24.1 100.99   -12 LegendNANA
21:00 -5.5 -11.8 62   33 15 24.1 101.05   -11 LegendNANA
22:00 -8.0 -13.1 67   27 7 24.1 101.12   -12 Mainly Clear
23:00 -11.1 -14.4 77   31 11 24.1 101.19   -17 LegendNANA

Notes on Data Quality.

Legend

  • E = Estimated
  • M = Missing
  • NA = Not Available*
  • [empty] = Indicates an unobserved value
Date modified: